Year,Month,Day,Hour,Minute,Value (Times are PST for temperature in C)
2009,07,28,00,00,22.70
2009,07,28,00,01,22.60
2009,07,28,00,02,22.60
2009,07,28,00,03,22.60
2009,07,28,00,04,22.50
2009,07,28,00,05,22.50
2009,07,28,00,06,22.50
2009,07,28,00,07,22.40
2009,07,28,00,08,22.40
2009,07,28,00,09,22.40
2009,07,28,00,10,22.30
2009,07,28,00,11,22.30
2009,07,28,00,12,22.30
2009,07,28,00,13,22.30
2009,07,28,00,14,22.20
2009,07,28,00,15,22.20
2009,07,28,00,16,22.10
2009,07,28,00,17,22.10
2009,07,28,00,18,22.10
2009,07,28,00,19,22.00
2009,07,28,00,20,22.00
2009,07,28,00,21,21.90
2009,07,28,00,22,21.90
2009,07,28,00,23,21.90
2009,07,28,00,24,21.80
2009,07,28,00,25,21.80
2009,07,28,00,26,21.80
2009,07,28,00,27,21.80
2009,07,28,00,28,21.80
2009,07,28,00,29,21.80
2009,07,28,00,30,21.80
2009,07,28,00,31,21.80
2009,07,28,00,32,21.80
2009,07,28,00,33,21.80
2009,07,28,00,34,21.80
2009,07,28,00,35,21.70
2009,07,28,00,36,21.70
2009,07,28,00,37,21.70
2009,07,28,00,38,21.70
2009,07,28,00,39,21.70
2009,07,28,00,40,21.70
2009,07,28,00,41,21.70
2009,07,28,00,42,21.70
2009,07,28,00,43,21.70
2009,07,28,00,44,21.70
2009,07,28,00,45,21.60
2009,07,28,00,46,21.60
2009,07,28,00,47,21.60
2009,07,28,00,48,21.60
2009,07,28,00,49,21.50
2009,07,28,00,50,21.50
2009,07,28,00,51,21.40
2009,07,28,00,52,21.40
2009,07,28,00,53,21.40
2009,07,28,00,54,21.40
2009,07,28,00,55,21.30
2009,07,28,00,56,21.30
2009,07,28,00,57,21.30
2009,07,28,00,58,21.30
2009,07,28,00,59,21.20
2009,07,28,01,00,21.20
2009,07,28,01,01,21.20
2009,07,28,01,02,21.20
2009,07,28,01,03,21.20
2009,07,28,01,04,21.20
2009,07,28,01,05,21.20
2009,07,28,01,06,21.20
2009,07,28,01,07,21.10
2009,07,28,01,08,21.10
2009,07,28,01,09,21.10
2009,07,28,01,10,21.10
2009,07,28,01,11,21.10
2009,07,28,01,12,21.10
2009,07,28,01,13,21.10
2009,07,28,01,14,21.00
2009,07,28,01,15,21.00
2009,07,28,01,16,20.90
2009,07,28,01,17,20.90
2009,07,28,01,18,20.80
2009,07,28,01,19,20.80
2009,07,28,01,20,20.80
2009,07,28,01,21,20.80
2009,07,28,01,22,20.70
2009,07,28,01,23,20.70
2009,07,28,01,24,20.70
2009,07,28,01,25,20.70
2009,07,28,01,26,20.70
2009,07,28,01,27,20.70
2009,07,28,01,28,20.70
2009,07,28,01,29,20.70
2009,07,28,01,30,20.70
2009,07,28,01,31,20.60
2009,07,28,01,32,20.60
2009,07,28,01,33,20.60
2009,07,28,01,34,20.60
2009,07,28,01,35,20.60
2009,07,28,01,36,20.60
2009,07,28,01,37,20.60
2009,07,28,01,38,20.60
2009,07,28,01,39,20.50
2009,07,28,01,40,20.50
2009,07,28,01,41,20.50
2009,07,28,01,42,20.50
2009,07,28,01,43,20.50
2009,07,28,01,44,20.50
2009,07,28,01,45,20.50
2009,07,28,01,46,20.50
2009,07,28,01,47,20.40
2009,07,28,01,48,20.40
2009,07,28,01,49,20.40
2009,07,28,01,50,20.40
2009,07,28,01,51,20.40
2009,07,28,01,52,20.40
2009,07,28,01,53,20.40
2009,07,28,01,54,20.40
2009,07,28,01,55,20.40
2009,07,28,01,56,20.40
2009,07,28,01,57,20.40
2009,07,28,01,58,20.30
2009,07,28,01,59,20.30
2009,07,28,02,00,20.30
2009,07,28,02,01,20.30
2009,07,28,02,02,20.30
2009,07,28,02,03,20.20
2009,07,28,02,04,20.20
2009,07,28,02,05,20.20
2009,07,28,02,06,20.10
2009,07,28,02,07,20.10
2009,07,28,02,08,20.10
2009,07,28,02,09,20.00
2009,07,28,02,10,20.00
2009,07,28,02,11,19.90
2009,07,28,02,12,19.90
2009,07,28,02,13,19.90
2009,07,28,02,14,19.80
2009,07,28,02,15,19.80
2009,07,28,02,16,19.80
2009,07,28,02,17,19.80
2009,07,28,02,18,19.70
2009,07,28,02,19,19.70
2009,07,28,02,20,19.70
2009,07,28,02,21,19.70
2009,07,28,02,22,19.70
2009,07,28,02,23,19.70
2009,07,28,02,24,19.70
2009,07,28,02,25,19.70
2009,07,28,02,26,19.70
2009,07,28,02,27,19.70
2009,07,28,02,28,19.70
2009,07,28,02,29,19.70
2009,07,28,02,30,19.70
2009,07,28,02,31,19.70
2009,07,28,02,32,19.70
2009,07,28,02,33,19.70
2009,07,28,02,34,19.70
2009,07,28,02,35,19.70
2009,07,28,02,36,19.70
2009,07,28,02,37,19.70
2009,07,28,02,38,19.60
2009,07,28,02,39,19.60
2009,07,28,02,40,19.60
2009,07,28,02,41,19.60
2009,07,28,02,42,19.60
2009,07,28,02,43,19.60
2009,07,28,02,44,19.60
2009,07,28,02,45,19.60
2009,07,28,02,46,19.60
2009,07,28,02,47,19.60
2009,07,28,02,48,19.60
2009,07,28,02,49,19.60
2009,07,28,02,50,19.60
2009,07,28,02,51,19.50
2009,07,28,02,52,19.50
2009,07,28,02,53,19.50
2009,07,28,02,54,19.50
2009,07,28,02,55,19.40
2009,07,28,02,56,19.40
2009,07,28,02,57,19.40
2009,07,28,02,58,19.40
2009,07,28,02,59,19.40
2009,07,28,03,00,19.40
2009,07,28,03,01,19.40
2009,07,28,03,02,19.40
2009,07,28,03,03,19.40
2009,07,28,03,04,19.40
2009,07,28,03,05,19.40
2009,07,28,03,06,19.40
2009,07,28,03,07,19.40
2009,07,28,03,08,19.40
2009,07,28,03,09,19.40
2009,07,28,03,10,19.40
2009,07,28,03,11,19.40
2009,07,28,03,12,19.40
2009,07,28,03,13,19.40
2009,07,28,03,14,19.40
2009,07,28,03,15,19.40
2009,07,28,03,16,19.40
2009,07,28,03,17,19.40
2009,07,28,03,18,19.30
2009,07,28,03,19,19.30
2009,07,28,03,20,19.30
2009,07,28,03,21,19.30
2009,07,28,03,22,19.30
2009,07,28,03,23,19.30
2009,07,28,03,24,19.20
2009,07,28,03,25,19.20
2009,07,28,03,26,19.20
2009,07,28,03,27,19.20
2009,07,28,03,28,19.10
2009,07,28,03,29,19.10
2009,07,28,03,30,19.10
2009,07,28,03,31,19.10
2009,07,28,03,32,19.00
2009,07,28,03,33,19.00
2009,07,28,03,34,19.00
2009,07,28,03,35,18.90
2009,07,28,03,36,18.90
2009,07,28,03,37,18.90
2009,07,28,03,38,18.90
2009,07,28,03,39,18.90
2009,07,28,03,40,18.90
2009,07,28,03,41,18.90
2009,07,28,03,42,18.80
2009,07,28,03,43,18.80
2009,07,28,03,44,18.80
2009,07,28,03,45,18.80
2009,07,28,03,46,18.80
2009,07,28,03,47,18.80
2009,07,28,03,48,18.80
2009,07,28,03,49,18.80
2009,07,28,03,50,18.80
2009,07,28,03,51,18.80
2009,07,28,03,52,18.80
2009,07,28,03,53,18.80
2009,07,28,03,54,18.80
2009,07,28,03,55,18.80
2009,07,28,03,56,18.80
2009,07,28,03,57,18.80
2009,07,28,03,58,18.80
2009,07,28,03,59,18.80
2009,07,28,04,00,18.80
2009,07,28,04,01,18.80
2009,07,28,04,02,18.80
2009,07,28,04,03,18.80
2009,07,28,04,04,18.80
2009,07,28,04,05,18.80
2009,07,28,04,06,18.80
2009,07,28,04,07,18.70
2009,07,28,04,08,18.70
2009,07,28,04,09,18.70
2009,07,28,04,10,18.70
2009,07,28,04,11,18.70
2009,07,28,04,12,18.70
2009,07,28,04,13,18.70
2009,07,28,04,14,18.70
2009,07,28,04,15,18.70
2009,07,28,04,16,18.70
2009,07,28,04,17,18.70
2009,07,28,04,18,18.70
2009,07,28,04,19,18.70
2009,07,28,04,20,18.70
2009,07,28,04,21,18.70
2009,07,28,04,22,18.70
2009,07,28,04,23,18.70
2009,07,28,04,24,18.70
2009,07,28,04,25,18.60
2009,07,28,04,26,18.60
2009,07,28,04,27,18.60
2009,07,28,04,28,18.60
2009,07,28,04,29,18.60
2009,07,28,04,30,18.60
2009,07,28,04,31,18.60
2009,07,28,04,32,18.60
2009,07,28,04,33,18.60
2009,07,28,04,34,18.60
2009,07,28,04,35,18.60
2009,07,28,04,36,18.60
2009,07,28,04,37,18.60
2009,07,28,04,38,18.60
2009,07,28,04,39,18.60
2009,07,28,04,40,18.60
2009,07,28,04,41,18.60
2009,07,28,04,42,18.60
2009,07,28,04,43,18.60
2009,07,28,04,44,18.60
2009,07,28,04,45,18.60
2009,07,28,04,46,18.60
2009,07,28,04,47,18.60
2009,07,28,04,48,18.60
2009,07,28,04,49,18.60
2009,07,28,04,50,18.60
2009,07,28,04,51,18.60
2009,07,28,04,52,18.60
2009,07,28,04,53,18.60
2009,07,28,04,54,18.60
2009,07,28,04,55,18.50
2009,07,28,04,56,18.50
2009,07,28,04,57,18.50
2009,07,28,04,58,18.50
2009,07,28,04,59,18.50
2009,07,28,05,00,18.50
2009,07,28,05,01,18.40
2009,07,28,05,02,18.40
2009,07,28,05,03,18.40
2009,07,28,05,04,18.40
2009,07,28,05,05,18.40
2009,07,28,05,06,18.40
2009,07,28,05,07,18.30
2009,07,28,05,08,18.30
2009,07,28,05,09,18.30
2009,07,28,05,10,18.30
2009,07,28,05,11,18.30
2009,07,28,05,12,18.20
2009,07,28,05,13,18.20
2009,07,28,05,14,18.20
2009,07,28,05,15,18.20
2009,07,28,05,16,18.20
2009,07,28,05,17,18.20
2009,07,28,05,18,18.20
2009,07,28,05,19,18.20
2009,07,28,05,20,18.20
2009,07,28,05,21,18.20
2009,07,28,05,22,18.20
2009,07,28,05,23,18.20
2009,07,28,05,24,18.20
2009,07,28,05,25,18.20
2009,07,28,05,26,18.20
2009,07,28,05,27,18.30
2009,07,28,05,28,18.30
2009,07,28,05,29,18.40
2009,07,28,05,30,18.50
2009,07,28,05,31,18.50
2009,07,28,05,32,18.60
2009,07,28,05,33,18.60
2009,07,28,05,34,18.60
2009,07,28,05,35,18.60
2009,07,28,05,36,18.60
2009,07,28,05,37,18.70
2009,07,28,05,38,18.70
2009,07,28,05,39,18.70
2009,07,28,05,40,18.70
2009,07,28,05,41,18.70
2009,07,28,05,42,18.70
2009,07,28,05,43,18.80
2009,07,28,05,44,18.80
2009,07,28,05,45,18.80
2009,07,28,05,46,18.90
2009,07,28,05,47,18.90
2009,07,28,05,48,18.90
2009,07,28,05,49,18.90
2009,07,28,05,50,18.90
2009,07,28,05,51,19.00
2009,07,28,05,52,19.00
2009,07,28,05,53,19.00
2009,07,28,05,54,19.00
2009,07,28,05,55,19.10
2009,07,28,05,56,19.10
2009,07,28,05,57,19.10
2009,07,28,05,58,19.20
2009,07,28,05,59,19.20
2009,07,28,06,00,19.30
2009,07,28,06,01,19.30
2009,07,28,06,02,19.40
2009,07,28,06,03,19.40
2009,07,28,06,04,19.50
2009,07,28,06,05,19.60
2009,07,28,06,06,19.50
2009,07,28,06,07,19.50
2009,07,28,06,08,19.40
2009,07,28,06,09,19.30
2009,07,28,06,10,19.30
2009,07,28,06,11,19.30
2009,07,28,06,12,19.20
2009,07,28,06,13,19.20
2009,07,28,06,14,19.20
2009,07,28,06,15,19.20
2009,07,28,06,16,19.20
2009,07,28,06,17,19.20
2009,07,28,06,18,19.20
2009,07,28,06,19,19.20
2009,07,28,06,20,19.20
2009,07,28,06,21,19.20
2009,07,28,06,22,19.20
2009,07,28,06,23,19.30
2009,07,28,06,24,19.30
2009,07,28,06,25,19.30
2009,07,28,06,26,19.30
2009,07,28,06,27,19.40
2009,07,28,06,28,19.40
2009,07,28,06,29,19.40
2009,07,28,06,30,19.40
2009,07,28,06,31,19.40
2009,07,28,06,32,19.50
2009,07,28,06,33,19.50
2009,07,28,06,34,19.50
2009,07,28,06,35,19.50
2009,07,28,06,36,19.60
2009,07,28,06,37,19.60
2009,07,28,06,38,19.60
2009,07,28,06,39,19.60
2009,07,28,06,40,19.60
2009,07,28,06,41,19.60
2009,07,28,06,42,19.60
2009,07,28,06,43,19.60
2009,07,28,06,44,19.60
2009,07,28,06,45,19.60
2009,07,28,06,46,19.70
2009,07,28,06,47,19.70
2009,07,28,06,48,19.70
2009,07,28,06,49,19.80
2009,07,28,06,50,19.80
2009,07,28,06,51,19.80
2009,07,28,06,52,19.80
2009,07,28,06,53,19.80
2009,07,28,06,54,19.80
2009,07,28,06,55,19.80
2009,07,28,06,56,19.80
2009,07,28,06,57,19.90
2009,07,28,06,58,19.90
2009,07,28,06,59,19.90
2009,07,28,07,00,19.90
2009,07,28,07,01,20.00
2009,07,28,07,02,20.10
2009,07,28,07,03,20.10
2009,07,28,07,04,20.20
2009,07,28,07,05,20.20
2009,07,28,07,06,20.30
2009,07,28,07,07,20.40
2009,07,28,07,08,20.50
2009,07,28,07,09,20.70
2009,07,28,07,10,20.80
2009,07,28,07,11,21.00
2009,07,28,07,12,21.10
2009,07,28,07,13,21.30
2009,07,28,07,14,21.40
2009,07,28,07,15,21.50
2009,07,28,07,16,21.70
2009,07,28,07,17,21.80
2009,07,28,07,18,21.90
2009,07,28,07,19,22.00
2009,07,28,07,20,22.10
2009,07,28,07,21,22.20
2009,07,28,07,22,22.30
2009,07,28,07,23,22.40
2009,07,28,07,24,22.40
2009,07,28,07,25,22.50
2009,07,28,07,26,22.60
2009,07,28,07,27,22.60
2009,07,28,07,28,22.60
2009,07,28,07,29,22.60
2009,07,28,07,30,22.70
2009,07,28,07,31,22.70
2009,07,28,07,32,22.60
2009,07,28,07,33,22.60
2009,07,28,07,34,22.60
2009,07,28,07,35,22.70
2009,07,28,07,36,22.70
2009,07,28,07,37,22.70
2009,07,28,07,38,22.70
2009,07,28,07,39,22.70
2009,07,28,07,40,22.70
2009,07,28,07,41,22.70
2009,07,28,07,42,22.70
2009,07,28,07,43,22.70
2009,07,28,07,44,22.80
2009,07,28,07,45,22.80
2009,07,28,07,46,22.80
2009,07,28,07,47,22.80
2009,07,28,07,48,22.80
2009,07,28,07,49,22.80
2009,07,28,07,50,22.80
2009,07,28,07,51,22.80
2009,07,28,07,52,22.80
2009,07,28,07,53,22.80
2009,07,28,07,54,22.80
2009,07,28,07,55,22.80
2009,07,28,07,56,22.80
2009,07,28,07,57,22.80
2009,07,28,07,58,22.80
2009,07,28,07,59,22.80
2009,07,28,08,00,22.80
2009,07,28,08,01,22.80
2009,07,28,08,02,22.90
2009,07,28,08,03,22.90
2009,07,28,08,04,22.90
2009,07,28,08,05,22.90
2009,07,28,08,06,23.00
2009,07,28,08,07,23.00
2009,07,28,08,08,23.10
2009,07,28,08,09,23.10
2009,07,28,08,10,23.10
2009,07,28,08,11,23.20
2009,07,28,08,12,23.20
2009,07,28,08,13,23.20
2009,07,28,08,14,23.30
2009,07,28,08,15,23.30
2009,07,28,08,16,23.40
2009,07,28,08,17,23.50
2009,07,28,08,18,23.50
2009,07,28,08,19,23.60
2009,07,28,08,20,23.70
2009,07,28,08,21,23.70
2009,07,28,08,22,23.80
2009,07,28,08,23,23.90
2009,07,28,08,24,24.00
2009,07,28,08,25,24.00
2009,07,28,08,26,24.10
2009,07,28,08,27,24.20
2009,07,28,08,28,24.20
2009,07,28,08,29,24.30
2009,07,28,08,30,24.30
2009,07,28,08,31,24.40
2009,07,28,08,32,24.40
2009,07,28,08,33,24.50
2009,07,28,08,34,24.50
2009,07,28,08,35,24.60
2009,07,28,08,36,24.70
2009,07,28,08,37,24.70
2009,07,28,08,38,24.70
2009,07,28,08,39,24.80
2009,07,28,08,40,24.80
2009,07,28,08,41,24.80
2009,07,28,08,42,24.90
2009,07,28,08,43,24.90
2009,07,28,08,44,25.00
2009,07,28,08,45,25.00
2009,07,28,08,46,25.10
2009,07,28,08,47,25.10
2009,07,28,08,48,25.10
2009,07,28,08,49,25.10
2009,07,28,08,50,25.10
2009,07,28,08,51,25.10
2009,07,28,08,52,25.10
2009,07,28,08,53,25.10
2009,07,28,08,54,25.10
2009,07,28,08,55,25.10
2009,07,28,08,56,25.10
2009,07,28,08,57,25.10
2009,07,28,08,58,25.10
2009,07,28,08,59,25.00
2009,07,28,09,00,25.00
2009,07,28,09,01,25.00
2009,07,28,09,02,25.00
2009,07,28,09,03,25.00
2009,07,28,09,04,25.00
2009,07,28,09,05,25.00
2009,07,28,09,06,25.00
2009,07,28,09,07,25.00
2009,07,28,09,08,25.00
2009,07,28,09,09,25.10
2009,07,28,09,10,25.10
2009,07,28,09,11,25.20
2009,07,28,09,12,25.20
2009,07,28,09,13,25.20
2009,07,28,09,14,25.30
2009,07,28,09,15,25.30
2009,07,28,09,16,25.40
2009,07,28,09,17,25.40
2009,07,28,09,18,25.50
2009,07,28,09,19,25.50
2009,07,28,09,20,25.60
2009,07,28,09,21,25.60
2009,07,28,09,22,25.60
2009,07,28,09,23,25.60
2009,07,28,09,24,25.60
2009,07,28,09,25,25.60
2009,07,28,09,26,25.60
2009,07,28,09,27,25.60
2009,07,28,09,28,25.60
2009,07,28,09,29,25.60
2009,07,28,09,30,25.70
2009,07,28,09,31,25.70
2009,07,28,09,32,25.70
2009,07,28,09,33,25.70
2009,07,28,09,34,25.80
2009,07,28,09,35,25.80
2009,07,28,09,36,25.80
2009,07,28,09,37,25.80
2009,07,28,09,38,25.80
2009,07,28,09,39,25.80
2009,07,28,09,40,25.90
2009,07,28,09,41,25.90
2009,07,28,09,42,25.90
2009,07,28,09,43,26.00
2009,07,28,09,44,26.00
2009,07,28,09,45,26.10
2009,07,28,09,46,26.10
2009,07,28,09,47,26.00
2009,07,28,09,48,26.00
2009,07,28,09,49,26.00
2009,07,28,09,50,26.00
2009,07,28,09,51,25.90
2009,07,28,09,52,25.80
2009,07,28,09,53,25.80
2009,07,28,09,54,25.80
2009,07,28,09,55,25.80
2009,07,28,09,56,25.80
2009,07,28,09,57,25.80
2009,07,28,09,58,25.80
2009,07,28,09,59,25.80
2009,07,28,10,00,25.80
2009,07,28,10,01,25.80
2009,07,28,10,02,25.80
2009,07,28,10,03,25.80
2009,07,28,10,04,25.80
2009,07,28,10,05,25.80
2009,07,28,10,06,25.80
2009,07,28,10,07,25.80
2009,07,28,10,08,25.80
2009,07,28,10,09,25.70
2009,07,28,10,10,25.70
2009,07,28,10,11,25.70
2009,07,28,10,12,25.70
2009,07,28,10,13,25.80
2009,07,28,10,14,25.90
2009,07,28,10,15,25.90
2009,07,28,10,16,26.00
2009,07,28,10,17,26.00
2009,07,28,10,18,26.00
2009,07,28,10,19,26.00
2009,07,28,10,20,26.10
2009,07,28,10,21,26.10
2009,07,28,10,22,26.10
2009,07,28,10,23,26.20
2009,07,28,10,24,26.20
2009,07,28,10,25,26.20
2009,07,28,10,26,26.20
2009,07,28,10,27,26.30
2009,07,28,10,28,26.30
2009,07,28,10,29,26.20
2009,07,28,10,30,26.20
2009,07,28,10,31,26.20
2009,07,28,10,32,26.20
2009,07,28,10,33,26.20
2009,07,28,10,34,26.20
2009,07,28,10,35,26.20
2009,07,28,10,36,26.30
2009,07,28,10,37,26.30
2009,07,28,10,38,26.30
2009,07,28,10,39,26.40
2009,07,28,10,40,26.40
2009,07,28,10,41,26.40
2009,07,28,10,42,26.40
2009,07,28,10,43,26.40
2009,07,28,10,44,26.40
2009,07,28,10,45,26.40
2009,07,28,10,46,26.50
2009,07,28,10,47,26.50
2009,07,28,10,48,26.50
2009,07,28,10,49,26.60
2009,07,28,10,50,26.70
2009,07,28,10,51,26.70
2009,07,28,10,52,26.80
2009,07,28,10,53,26.80
2009,07,28,10,54,26.80
2009,07,28,10,55,26.80
2009,07,28,10,56,26.80
2009,07,28,10,57,26.90
2009,07,28,10,58,27.00
2009,07,28,10,59,27.00
2009,07,28,11,00,27.00
2009,07,28,11,01,27.00
2009,07,28,11,02,27.00
2009,07,28,11,03,27.00
2009,07,28,11,04,27.10
2009,07,28,11,05,27.10
2009,07,28,11,06,27.20
2009,07,28,11,07,27.10
2009,07,28,11,08,27.10
2009,07,28,11,09,27.20
2009,07,28,11,10,27.20
2009,07,28,11,11,27.20
2009,07,28,11,12,27.20
2009,07,28,11,13,27.30
2009,07,28,11,14,27.30
2009,07,28,11,15,27.30
2009,07,28,11,16,27.40
2009,07,28,11,17,27.40
2009,07,28,11,18,27.50
2009,07,28,11,19,27.60
2009,07,28,11,20,27.60
2009,07,28,11,21,27.70
2009,07,28,11,22,27.70
2009,07,28,11,23,27.70
2009,07,28,11,24,27.80
2009,07,28,11,25,27.80
2009,07,28,11,26,27.90
2009,07,28,11,27,27.90
2009,07,28,11,28,28.00
2009,07,28,11,29,28.10
2009,07,28,11,30,28.20
2009,07,28,11,31,28.30
2009,07,28,11,32,28.30
2009,07,28,11,33,28.20
2009,07,28,11,34,28.20
2009,07,28,11,35,28.10
2009,07,28,11,36,28.10
2009,07,28,11,37,28.10
2009,07,28,11,38,28.10
2009,07,28,11,39,28.10
2009,07,28,11,40,28.10
2009,07,28,11,41,28.10
2009,07,28,11,42,28.10
2009,07,28,11,43,28.20
2009,07,28,11,44,28.20
2009,07,28,11,45,28.20
2009,07,28,11,46,28.10
2009,07,28,11,47,28.10
2009,07,28,11,48,28.20
2009,07,28,11,49,28.30
2009,07,28,11,50,28.30
2009,07,28,11,51,28.40
2009,07,28,11,52,28.40
2009,07,28,11,53,28.50
2009,07,28,11,54,28.50
2009,07,28,11,55,28.60
2009,07,28,11,56,28.60
2009,07,28,11,57,28.50
2009,07,28,11,58,28.40
2009,07,28,11,59,28.40
2009,07,28,12,00,28.50
2009,07,28,12,01,28.50
2009,07,28,12,02,28.50
2009,07,28,12,03,28.50
2009,07,28,12,04,28.60
2009,07,28,12,05,28.60
2009,07,28,12,06,28.70
2009,07,28,12,07,28.70
2009,07,28,12,08,28.80
2009,07,28,12,09,28.80
2009,07,28,12,10,28.90
2009,07,28,12,11,28.90
2009,07,28,12,12,28.90
2009,07,28,12,13,28.80
2009,07,28,12,14,28.80
2009,07,28,12,15,28.70
2009,07,28,12,16,28.60
2009,07,28,12,17,28.60
2009,07,28,12,18,28.60
2009,07,28,12,19,28.60
2009,07,28,12,20,28.70
2009,07,28,12,21,28.70
2009,07,28,12,22,28.80
2009,07,28,12,23,28.90
2009,07,28,12,24,28.90
2009,07,28,12,25,29.00
2009,07,28,12,26,29.10
2009,07,28,12,27,29.10
2009,07,28,12,28,29.10
2009,07,28,12,29,29.10
2009,07,28,12,30,29.10
2009,07,28,12,31,29.20
2009,07,28,12,32,29.20
2009,07,28,12,33,29.20
2009,07,28,12,34,29.30
2009,07,28,12,35,29.30
2009,07,28,12,36,29.30
2009,07,28,12,37,29.30
2009,07,28,12,38,29.30
2009,07,28,12,39,29.30
2009,07,28,12,40,29.40
2009,07,28,12,41,29.50
2009,07,28,12,42,29.50
2009,07,28,12,43,29.60
2009,07,28,12,44,29.60
2009,07,28,12,45,29.60
2009,07,28,12,46,29.60
2009,07,28,12,47,29.50
2009,07,28,12,48,29.50
2009,07,28,12,49,29.50
2009,07,28,12,50,29.40
2009,07,28,12,51,29.40
2009,07,28,12,52,29.40
2009,07,28,12,53,29.40
2009,07,28,12,54,29.40
2009,07,28,12,55,29.40
2009,07,28,12,56,29.50
2009,07,28,12,57,29.50
2009,07,28,12,58,29.50
2009,07,28,12,59,29.60
2009,07,28,13,00,29.60
2009,07,28,13,01,29.60
2009,07,28,13,02,29.70
2009,07,28,13,03,29.80
2009,07,28,13,04,29.80
2009,07,28,13,05,29.90
2009,07,28,13,06,29.90
2009,07,28,13,07,29.90
2009,07,28,13,08,29.90
2009,07,28,13,09,29.80
2009,07,28,13,10,29.80
2009,07,28,13,11,29.80
2009,07,28,13,12,29.80
2009,07,28,13,13,29.80
2009,07,28,13,14,29.80
2009,07,28,13,15,29.90
2009,07,28,13,16,30.00
2009,07,28,13,17,30.10
2009,07,28,13,18,30.20
2009,07,28,13,19,30.30
2009,07,28,13,20,30.40
2009,07,28,13,21,30.40
2009,07,28,13,22,30.40
2009,07,28,13,23,30.40
2009,07,28,13,24,30.40
2009,07,28,13,25,30.40
2009,07,28,13,26,30.40
2009,07,28,13,27,30.40
2009,07,28,13,28,30.50
2009,07,28,13,29,30.50
2009,07,28,13,30,30.60
2009,07,28,13,31,30.70
2009,07,28,13,32,30.70
2009,07,28,13,33,30.80
2009,07,28,13,34,30.90
2009,07,28,13,35,30.90
2009,07,28,13,36,31.00
2009,07,28,13,37,31.10
2009,07,28,13,38,31.10
2009,07,28,13,39,31.10
2009,07,28,13,40,31.00
2009,07,28,13,41,31.00
2009,07,28,13,42,31.00
2009,07,28,13,43,30.90
2009,07,28,13,44,30.90
2009,07,28,13,45,30.90
2009,07,28,13,46,30.80
2009,07,28,13,47,30.80
2009,07,28,13,48,30.80
2009,07,28,13,49,30.80
2009,07,28,13,50,30.80
2009,07,28,13,51,30.80
2009,07,28,13,52,30.90
2009,07,28,13,53,31.00
2009,07,28,13,54,31.00
2009,07,28,13,55,30.90
2009,07,28,13,56,30.90
2009,07,28,13,57,30.90
2009,07,28,13,58,30.90
2009,07,28,13,59,30.90
2009,07,28,14,00,31.00
2009,07,28,14,01,31.00
2009,07,28,14,02,31.10
2009,07,28,14,03,31.10
2009,07,28,14,04,31.20
2009,07,28,14,05,31.20
2009,07,28,14,06,31.30
2009,07,28,14,07,31.20
2009,07,28,14,08,31.20
2009,07,28,14,09,31.10
2009,07,28,14,10,31.10
2009,07,28,14,11,31.00
2009,07,28,14,12,30.90
2009,07,28,14,13,30.90
2009,07,28,14,14,30.90
2009,07,28,14,15,30.90
2009,07,28,14,16,30.90
2009,07,28,14,17,30.90
2009,07,28,14,18,30.90
2009,07,28,14,19,31.00
2009,07,28,14,20,31.10
2009,07,28,14,21,31.10
2009,07,28,14,22,31.20
2009,07,28,14,23,31.30
2009,07,28,14,24,31.40
2009,07,28,14,25,31.40
2009,07,28,14,26,31.40
2009,07,28,14,27,31.40
2009,07,28,14,28,31.40
2009,07,28,14,29,31.40
2009,07,28,14,30,31.50
2009,07,28,14,31,31.60
2009,07,28,14,32,31.70
2009,07,28,14,33,31.80
2009,07,28,14,34,31.80
2009,07,28,14,35,31.90
2009,07,28,14,36,32.00
2009,07,28,14,37,32.00
2009,07,28,14,38,31.90
2009,07,28,14,39,31.80
2009,07,28,14,40,31.70
2009,07,28,14,41,31.60
2009,07,28,14,42,31.60
2009,07,28,14,43,31.60
2009,07,28,14,44,31.60
2009,07,28,14,45,31.70
2009,07,28,14,46,31.70
2009,07,28,14,47,31.80
2009,07,28,14,48,31.90
2009,07,28,14,49,31.90
2009,07,28,14,50,32.00
2009,07,28,14,51,32.00
2009,07,28,14,52,32.00
2009,07,28,14,53,31.90
2009,07,28,14,54,31.90
2009,07,28,14,55,31.80
2009,07,28,14,56,31.70
2009,07,28,14,57,31.70
2009,07,28,14,58,31.80
2009,07,28,14,59,31.80
2009,07,28,15,00,31.80
2009,07,28,15,01,31.90
2009,07,28,15,02,31.90
2009,07,28,15,03,31.90
2009,07,28,15,04,32.00
2009,07,28,15,05,32.00
2009,07,28,15,06,32.10
2009,07,28,15,07,32.10
2009,07,28,15,08,32.20
2009,07,28,15,09,32.20
2009,07,28,15,10,32.20
2009,07,28,15,11,32.30
2009,07,28,15,12,32.30
2009,07,28,15,13,32.40
2009,07,28,15,14,32.40
2009,07,28,15,15,32.50
2009,07,28,15,16,32.50
2009,07,28,15,17,32.60
2009,07,28,15,18,32.50
2009,07,28,15,19,32.40
2009,07,28,15,20,32.30
2009,07,28,15,21,32.20
2009,07,28,15,22,32.20
2009,07,28,15,23,32.20
2009,07,28,15,24,32.10
2009,07,28,15,25,32.10
2009,07,28,15,26,32.20
2009,07,28,15,27,32.20
2009,07,28,15,28,32.20
2009,07,28,15,29,32.30
2009,07,28,15,30,32.30
2009,07,28,15,31,32.40
2009,07,28,15,32,32.40
2009,07,28,15,33,32.30
2009,07,28,15,34,32.30
2009,07,28,15,35,32.30
2009,07,28,15,36,32.40
2009,07,28,15,37,32.40
2009,07,28,15,38,32.40
2009,07,28,15,39,32.50
2009,07,28,15,40,32.50
2009,07,28,15,41,32.40
2009,07,28,15,42,32.40
2009,07,28,15,43,32.40
2009,07,28,15,44,32.40
2009,07,28,15,45,32.50
2009,07,28,15,46,32.60
2009,07,28,15,47,32.60
2009,07,28,15,48,32.70
2009,07,28,15,49,32.80
2009,07,28,15,50,32.80
2009,07,28,15,51,32.70
2009,07,28,15,52,32.70
2009,07,28,15,53,32.70
2009,07,28,15,54,32.70
2009,07,28,15,55,32.80
2009,07,28,15,56,32.80
2009,07,28,15,57,32.80
2009,07,28,15,58,32.90
2009,07,28,15,59,33.00
2009,07,28,16,00,32.80
2009,07,28,16,01,32.60
2009,07,28,16,02,32.50
2009,07,28,16,03,32.40
2009,07,28,16,04,32.40
2009,07,28,16,05,32.50
2009,07,28,16,06,32.50
2009,07,28,16,07,32.40
2009,07,28,16,08,32.40
2009,07,28,16,09,32.40
2009,07,28,16,10,32.40
2009,07,28,16,11,32.40
2009,07,28,16,12,32.40
2009,07,28,16,13,32.40
2009,07,28,16,14,32.50
2009,07,28,16,15,32.50
2009,07,28,16,16,32.60
2009,07,28,16,17,32.60
2009,07,28,16,18,32.50
2009,07,28,16,19,32.50
2009,07,28,16,20,32.30
2009,07,28,16,21,32.20
2009,07,28,16,22,32.20
2009,07,28,16,23,32.20
2009,07,28,16,24,32.10
2009,07,28,16,25,32.00
2009,07,28,16,26,31.90
2009,07,28,16,27,31.90
2009,07,28,16,28,32.00
2009,07,28,16,29,32.10
2009,07,28,16,30,32.10
2009,07,28,16,31,32.10
2009,07,28,16,32,32.20
2009,07,28,16,33,32.20
2009,07,28,16,34,32.20
2009,07,28,16,35,32.20
2009,07,28,16,36,32.30
2009,07,28,16,37,32.30
2009,07,28,16,38,32.30
2009,07,28,16,39,32.30
2009,07,28,16,40,32.30
2009,07,28,16,41,32.20
2009,07,28,16,42,32.20
2009,07,28,16,43,32.20
2009,07,28,16,44,32.20
2009,07,28,16,45,32.20
2009,07,28,16,46,32.30
2009,07,28,16,47,32.30
2009,07,28,16,48,32.30
2009,07,28,16,49,32.40
2009,07,28,16,50,32.40
2009,07,28,16,51,32.50
2009,07,28,16,52,32.60
2009,07,28,16,53,32.70
2009,07,28,16,54,32.70
2009,07,28,16,55,32.70
2009,07,28,16,56,32.70
2009,07,28,16,57,32.60
2009,07,28,16,58,32.50
2009,07,28,16,59,32.50
2009,07,28,17,00,32.40
2009,07,28,17,01,32.40
2009,07,28,17,02,32.40
2009,07,28,17,03,32.40
2009,07,28,17,04,32.40
2009,07,28,17,05,32.40
2009,07,28,17,06,32.40
2009,07,28,17,07,32.40
2009,07,28,17,08,32.50
2009,07,28,17,09,32.50
2009,07,28,17,10,32.50
2009,07,28,17,11,32.40
2009,07,28,17,12,32.50
2009,07,28,17,13,32.60
2009,07,28,17,14,32.70
2009,07,28,17,15,32.80
2009,07,28,17,16,32.80
2009,07,28,17,17,32.80
2009,07,28,17,18,32.80
2009,07,28,17,19,32.80